Tracking 28790 objects as of 19-Apr-2024
HD Live streaming from Space Station
objects crossing your sky now

STARLINK-1153

Track STARLINK-1153 now!
10-day predictions
STARLINK-1153 is classified as:


NORAD ID: 45080
Int'l Code: 2020-006AN
Perigee: 553.4 km
Apogee: 555.4 km
Inclination: 53.1 °
Period: 95.6 minutes
Semi major axis: 6925 km
RCS: Unknown
Launch date: January 29, 2020
Source: United States (US)
Launch site: AIR FORCE EASTERN TEST RANGE (AFETR)
Your satellite tracking list
Your tracking list is empty




NASA's NSSDC Master Catalog

Two Line Element Set (TLE):
1 45080U 20006AN  24110.17262581  .00001011  00000-0  86824-4 0  9990
2 45080  53.0520 121.9752 0001385  72.7927 287.3213 15.06381909232816
Source of the keplerian elements: AFSPC